sat.trackr.live / text

‹ back to catalog

STARLINK-32419

NORAD 61637 · 2024-191S

PAYLOAD ACTIVE UNKNOWN

§ Identity

Operator
Country
US
Launch date
2024-10-23
Launch site
AFETR
Launch vehicle
Mass (kg)
RCS (m²)

Purposes: comms

External: N2YO · Heavens-Above · Gunter

§ Orbital elements

Epoch: 2026-05-25T04:28:01.936128Z

Period
94.27 min
Inclination
43.0017°
Eccentricity
0.0000567
Mean motion
15.27573898 rev/d
Perigee alt
482.7 km
Apogee alt
483.5 km
Semi-major
6,861.2 km
B*
-1.2450e-6
RAAN
82.6544°
Arg perigee
256.4120°
Mean anomaly
103.6668°
Rev number
8,923

§ Raw data

STARLINK-324191 61637U 24191S   26145.18613352 -.00000296  00000+0 -12450-5 0  99922 61637  43.0017  82.6544 0000567 256.4120 103.6668 15.27573898 89234

JSON: /api/v1/satellites/61637 · /tle

For live sub-satellite position, see the globe view (requires WebGL).

§ Visibility from observer

Set your observer location to see the next 7 days of passes ≥ 10°. The values pass through the URL so the page stays shareable.

No JS? Fill the form by hand. The geolocation button needs JavaScript.